ARIANE 1 DEB, 48260

Orbit data source: Space-Track

ARIANE 1 DEB, 48260 is space debris originally from a launch on Mon, 24 Dec 1979 UTC launched from the French Guiana (FRGUI). Debris objects in space refer to the collection of defunct objects orbiting the Earth. Examples of debris include non-operational satellites, rocket bodies, and fragments generated from explosions, collisions, or faulty payload assembly.

Loading next visibility...
Identifier
48260, 1979-104AL
Orbit
Active
Country
Flag of FRFR
Related business
Manufacturer
Unknown
Mission
Spacecraft
Bus & Motor
Unknown
Mass
Unknown
Launch date (UTC)
1979-12-24 (46 years ago)
Launch vehicle
Unknown
Launch site
French Guiana (FRGUI)
Object type
Payload
Rocket body
Debris
Shape & HBR
Unknown shape, 0.1 m
Radar Cross Section
Small (<0.1 m²)

Expand to show TLE details & history
Last TLE update: 4 months ago

TLE from 4 months ago
0 ARIANE 1 DEB
1 48260U 79104AL  25310.12046870  .00008983  00000-0  85478-3 0  9993
2 48260  23.0782 250.2544 4150905 229.5837  86.1222  7.12363552 38899
Epoch: 2025-11-06T02:53Z
TLE epoch observation values (Epoch: 2025-11-06T02:53:28.495Z)
Latitude
-0°
Longitude
161.30233°
Altitude
6,543.791 km
Speed
5.174 km/s
True Right ascension
16h 41m 01s
True Declination
0° 00' 00"
Sunlit
Object was in daylight at epoch
Visualization orbit readout
Latitude
Unknown
Longitude
Unknown
Altitude
Unknown
Speed
Unknown
Apparent Right ascension
Unknown
Apparent Declination
Unknown
Sunlit
N/A
Visualization observer readout
Local Sidereal Time
19:08:04
Azimuth
Unknown
Elevation
Unknown
Doppler factor
Unknown
Orbital elements
Apogee altitude
9,772.96 km
Perigee altitude
297.712 km
Semi-major axis
11,413.473 km
Eccentricity
0.41509
Inclination
23.0782°
RAAN
250.2544°
Arg. of periapsis
229.5837°
True anomaly
130.45265°
Mean anomaly
86.1222°
Eccentric anomaly
108.65555°
Mean motion
1.77999 °/min
Orbital period
202.25 mins
BSTAR
0.00085478
Loading maneuver chart data...
Computing Atmospheric mass density...
Loading historical data...
Loading historical data...
Loading historical data...
Loading historical data...
Loading historical data...
Loading historical data...
Loading historical data...

Documentation

Showing up to 5 results
|